Las Vegas, NM

4:51 PM MDT on August 28, 2016 (GMT -0600)
Las Vegas Municipal

Weather History for KLVS - October, 2012

Change the Weather History Date:

Wednesday, October 3, 2012

  Actual Average Record
Temperature  
Mean Temperature 66 °F -  
Max Temperature 82 °F 71 °F 84 °F (2000)
Min Temperature 51 °F 40 °F 28 °F (1971)
Growing Degree Days 16 (Base 50)    
Moisture  
Dew Point 20 °F    
Average Humidity 20    
Maximum Humidity 39    
Minimum Humidity 7    
Precipitation  
Precipitation 0.00 in - - ()
Sea Level Pressure  
Sea Level Pressure 29.80 in    
Wind  
Wind Speed 8 mph (NW)    
Max Wind Speed 22 mph    
Max Gust Speed 30 mph    
Visibility 10 miles    
Events      
Averages and records for this station are not official NWS values.
T = Trace of Precipitation, MM = Missing Value Source: NWS Daily Summary

Daily Weather History Graph

Daily Weather History Graph

Search for Another Location

Airport or City:

Trip Planner

Search our weather history database for the weather conditions in past years. The results will help you decide how hot, cold, wet, or windy it might be!

Date:

Astronomy

Oct. 03, 2012 Rise Set
Actual Time 6:57 AM MDT 6:40 PM MDT
Civil Twilight 6:32 AM MDT 7:06 PM MDT
Nautical Twilight 6:02 AM MDT 7:35 PM MDT
Astronomical Twilight 5:32 AM MDT 8:05 PM MDT
Moon 8:43 PM MDT (10/3) 10:14 AM MDT (10/3)
Length of Visible Light 12h 34m
Length of Day
11h 43m
Waning Gibbous, 88% of the Moon is Illuminated
Oct 3
Waning Gibbous
Oct 8
Last Quarter
Oct 15
New
Oct 21
First Quarter
Oct 29
Full

Hourly Weather History & Observations

Time (MDT) Temp. Dew Point Humidity Pressure Visibility Wind Dir Wind Speed Gust Speed Precip Events Conditions
12:53 AM 55.9 °F 26.1 °F 32% 29.80 in 10.0 mi North 4.6 mph - N/A   Clear
1:53 AM 59.0 °F 25.0 °F 27% 29.77 in 10.0 mi NNW 4.6 mph - N/A   Clear
2:53 AM 51.1 °F 27.0 °F 39% 29.78 in 10.0 mi NE 4.6 mph - N/A   Clear
3:53 AM 52.0 °F 26.1 °F 37% 29.77 in 10.0 mi NW 4.6 mph - N/A   Clear
4:53 AM 55.0 °F 24.1 °F 30% 29.78 in 10.0 mi NNW 4.6 mph - N/A   Clear
5:53 AM 52.0 °F 24.1 °F 34% 29.79 in 10.0 mi North 8.1 mph - N/A   Clear
6:53 AM 52.0 °F 23.0 °F 32% 29.82 in 10.0 mi North 6.9 mph - N/A   Clear
7:53 AM 52.0 °F 24.1 °F 34% 29.85 in 10.0 mi North 6.9 mph - N/A   Clear
8:53 AM 61.0 °F 24.1 °F 24% 29.85 in 10.0 mi North 6.9 mph - N/A   Clear
9:53 AM 72.0 °F 25.0 °F 17% 29.82 in 10.0 mi NNW 11.5 mph - N/A   Clear
10:53 AM 75.0 °F 18.0 °F 12% 29.79 in 10.0 mi WNW 4.6 mph - N/A   Clear
11:53 AM 77.0 °F 16.0 °F 10% 29.78 in 10.0 mi Variable 4.6 mph - N/A   Clear
12:53 PM 79.0 °F 14.0 °F 9% 29.75 in 10.0 mi WNW 8.1 mph - N/A   Clear
1:53 PM 78.1 °F 12.9 °F 8% 29.73 in 10.0 mi WNW 13.8 mph 19.6 mph N/A   Clear
2:53 PM 80.1 °F 9.0 °F 7% 29.75 in 10.0 mi NW 21.9 mph 28.8 mph N/A   Clear
3:53 PM 79.0 °F 14.0 °F 9% 29.75 in 10.0 mi WNW 21.9 mph 29.9 mph N/A   Clear
4:53 PM 79.0 °F 17.1 °F 10% 29.75 in 10.0 mi West 20.7 mph 25.3 mph N/A   Clear
5:53 PM 75.9 °F 15.1 °F 10% 29.78 in 10.0 mi WNW 20.7 mph - N/A   Clear
6:53 PM 70.0 °F 16.0 °F 13% 29.82 in 10.0 mi WNW 16.1 mph - N/A   Clear
7:53 PM 66.9 °F 19.0 °F 16% 29.86 in 10.0 mi WNW 10.4 mph - N/A   Clear
9:53 PM 64.9 °F 19.0 °F 17% 29.83 in 10.0 mi NW 12.7 mph - N/A   Clear
10:53 PM 64.9 °F 19.0 °F 17% 29.84 in 10.0 mi WNW 10.4 mph - N/A   Clear
11:53 PM 62.1 °F 19.0 °F 19% 29.85 in 10.0 mi NNW 6.9 mph - N/A   Clear